Location: Saratoga Springs
(43.0831°N, 73.7850°W)
Time: 07:20:14
(UTC-04:00)

Vanguard 2 Rocket - Pass Details

Date: 17 April 2024
Orbit: 556 x 3304 km, 32.9° (Epoch: 20 May)

Event Time Altitude Azimuth Distance (km) Brightness Sun altitude
Rises 01:59:25 0° 263° (W) 7,170 11.2 -34.3°
Reaches altitude 10° 02:04:13 10° 260° (W) 6,239 10.9 -34.0°
Maximum altitude 02:23:46 59° 188° (S) 3,303 9.2 -32.5°
Drops below altitude 10° 02:38:11 10° 114° (ESE) 4,765 10.6 -31.3°
Sets 02:41:19 0° 110° (ESE) 5,457 11.0 -31.0°
